Location: Marcé
(47.5801°N, 0.3280°W)
Time: 18:33:01
(UTC+01:00)

Tiros 1 - Pass Details

Date: 07 December 2021
Orbit: 629 x 664 km, 48.4° (Epoch: 26 January)

Event Time Altitude Azimuth Distance (km) Brightness Sun altitude
Rises 19:20:44 0° 246° (WSW) 2,914 11.9 -21.1°
Reaches altitude 10° 19:23:03 10° 244° (WSW) 2,011 10.7 -21.5°
Maximum altitude 19:27:40 72° 161° (SSE) 671 7.1 -22.2°
Enters shadow 19:28:13 64° 112° (ESE) 710 7.0 -22.3°
Drops below altitude 10° 19:32:20 10° 77° (ENE) 2,036 - -23.0°
Sets 19:34:41 0° 76° (ENE) 2,953 - -23.4°
